Location: Lac Lasalle
(46.0398°N, 74.1576°W)
Time: 17:44:48
(UTC-05:00)

AO-73 - Pass Details

Date: 17 December 2019
Orbit: 581 x 664 km, 97.6° (Epoch: 21 January)

Event Time Altitude Azimuth Distance (km) Brightness Sun altitude
Rises 17:38:31 0° 174° (S) 2,951 ? -14.2°
Reaches altitude 10° 17:40:46 10° 178° (S) 2,034 ? -14.6°
Maximum altitude 17:45:10 62° 259° (W) 715 ? -15.3°
Drops below altitude 10° 17:49:29 10° 341° (NNW) 2,001 ? -16.0°
Sets 17:51:41 0° 345° (NNW) 2,898 ? -16.4°
